DW5766 Farmingdale NY US current weather conditions

sailwx.info

Wind from 157 at 1 knots gusting 6

Air temperature 20.0° C
Dewpoint 19.5° C

Last reported at 2019-Jun-18 21:00 UTC.
Time now 2019-Jun-18 21:39 UTC

Location: N 40°44' W 073°26'.
View on Google Maps.

See reports from other nearby stations

  
Tides and Currents Weather Stations Pressure Air Temp Water Temp Dewpoint Dewpoint Depression Visibility Wind Speed Wind Dir Waves Ship Positions
date/time (UTC)wind fromknots sea level pressurealtimeterstation pressurevisibilityair tempwater tempwave heightnotes
2019-Jun-18 21:00 157 1 gusting 6 20.0
2019-Jun-18 20:45 247 2 gusting 6 20.6
2019-Jun-18 20:30 140 1 gusting 3 20.6
2019-Jun-18 20:15 236 0 gusting 4 20.0
2019-Jun-18 20:00 157 1 gusting 5 20.0
2019-Jun-18 19:45 215 2 gusting 5 20.0
2019-Jun-18 19:30 227 1 gusting 6 20.0
2019-Jun-18 19:15 231 0 gusting 4 20.0
2019-Jun-18 19:00 150 0 gusting 6 20.6
2019-Jun-18 18:45 081 1 gusting 4 20.0
2019-Jun-18 18:30 222 1 gusting 6 20.6
2019-Jun-18 18:15 130 1 gusting 4 20.6
2019-Jun-18 18:00 215 1 gusting 6 20.6
2019-Jun-18 17:45 157 2 gusting 6 20.6
2019-Jun-18 17:31 147 2 gusting 4 21.1
2019-Jun-18 17:18 074 1 gusting 6 21.7
2019-Jun-18 17:01 238 0 gusting 4 21.7
2019-Jun-18 16:46 256 22.8
2019-Jun-18 16:31 150 2 gusting 6 23.3
2019-Jun-18 16:16 115 1 gusting 5 23.3
2019-Jun-18 16:01 250 1 gusting 4 22.2
2019-Jun-18 15:46 136 1 gusting 5 22.2
2019-Jun-18 15:31 141 2 gusting 5 22.2
2019-Jun-18 15:16 140 2 gusting 5 22.2
2019-Jun-18 15:01 242 21.7
2019-Jun-18 14:46 092 0 gusting 4 21.7
2019-Jun-18 14:30 178 0 gusting 4 21.7
2019-Jun-18 14:16 231 0 gusting 5 21.7
2019-Jun-18 14:02 229 0 gusting 3 21.7
2019-Jun-18 13:46 210 1 gusting 3 21.7
2019-Jun-18 13:31 226 0 gusting 3 21.1
2019-Jun-18 13:15 240 21.1
2019-Jun-18 13:01 212 20.6
2019-Jun-18 12:46 215 0 gusting 3 20.6
2019-Jun-18 12:30 227 20.0
2019-Jun-18 12:15 252 20.0
2019-Jun-18 12:00 252 20.0
2019-Jun-18 11:45 252 20.0
2019-Jun-18 11:31 252 20.0
2019-Jun-18 11:15 251 19.4
2019-Jun-18 11:00 252 19.4
2019-Jun-18 10:45 250 19.4
2019-Jun-18 10:30 252 19.4
2019-Jun-18 10:15 252 19.4
2019-Jun-18 10:00 252 19.4
2019-Jun-18 09:45 252 19.4
2019-Jun-18 09:30 252 19.4
2019-Jun-18 09:15 252 19.4
2019-Jun-18 09:00 252 19.4
2019-Jun-18 08:45 252 19.4
2019-Jun-18 08:30 252 19.4
2019-Jun-18 08:15 252 19.4
2019-Jun-18 08:00 252 19.4
2019-Jun-18 07:45 252 19.4
2019-Jun-18 07:30 252 19.4
2019-Jun-18 07:15 251 19.4
2019-Jun-18 07:00 252 19.4
2019-Jun-18 06:46 252 19.4
2019-Jun-18 06:32 252 19.4
2019-Jun-18 06:16 252 19.4
2019-Jun-18 06:01 263 19.4
2019-Jun-18 05:46 195 0 gusting 2 19.4
2019-Jun-18 05:31 239 19.4
2019-Jun-18 05:16 238 18.9
2019-Jun-18 05:01 239 18.9
2019-Jun-18 04:46 238 18.9
2019-Jun-18 04:32 238 18.9
2019-Jun-18 04:16 239 18.9
2019-Jun-18 04:01 238 19.4
2019-Jun-18 03:46 239 19.4
2019-Jun-18 03:31 238 19.4
2019-Jun-18 03:17 238 19.4
2019-Jun-18 03:00 239 19.4
2019-Jun-18 02:46 237 19.4
2019-Jun-18 02:30 238 19.4
2019-Jun-18 02:16 237 20.0
2019-Jun-18 02:00 237 20.0
2019-Jun-18 01:46 239 20.0
2019-Jun-18 01:31 239 20.6
2019-Jun-18 01:15 238 0 gusting 2 20.6
2019-Jun-18 01:00 238 21.1
2019-Jun-18 00:45 231 21.1
2019-Jun-18 00:31 228 21.1
2019-Jun-18 00:15 244 0 gusting 2 21.7
2019-Jun-18 00:01 245 0 gusting 2 21.7
2019-Jun-17 23:45 268 1 gusting 4 22.2
2019-Jun-17 23:30 245 22.8
2019-Jun-17 23:15 241 0 gusting 4 23.3
2019-Jun-17 23:00 247 0 gusting 3 24.4
2019-Jun-17 22:45 220 0 gusting 6 24.4
2019-Jun-17 22:30 093 24.4
2019-Jun-17 22:15 235 25.0
2019-Jun-17 22:01 123 25.0
2019-Jun-17 21:46 258 24.4
2019-Jun-17 21:30 259 23.9
2019-Jun-17 21:16 258 22.8
2019-Jun-17 21:00 258 0 gusting 2 22.8
2019-Jun-17 20:45 231 0 gusting 3 22.8
2019-Jun-17 20:31 247 22.8
2019-Jun-17 20:15 248 0 gusting 3 23.3
2019-Jun-17 20:00 249 23.3
2019-Jun-17 19:46 248 23.3
2019-Jun-17 19:30 228 1 gusting 5 23.3
2019-Jun-17 19:15 265 0 gusting 2 23.3
2019-Jun-17 19:00 240 0 gusting 4 23.3
2019-Jun-17 18:45 243 23.3
2019-Jun-17 18:31 222 1 gusting 4 23.9
2019-Jun-16 23:01 215 1 gusting 5 22.8
2019-Jun-16 22:45 205 1 gusting 4 22.8
2019-Jun-16 22:30 235 0 gusting 3 22.8
2019-Jun-16 22:16 225 1 gusting 4 22.8
2019-Jun-16 21:45 256 2 gusting 6 22.8
2019-Jun-16 21:30 198 2 gusting 7 22.8
2019-Jun-16 21:15 279 1 gusting 6 23.3
2019-Jun-16 21:00 251 0 gusting 5 23.3